RH
75 79 83 85 87 80 77 85 84 77 77 84 86 85 90 95 93 89 86 81 78 76 76 72 69 68 65 63 64 65 69 75 78 79 81 76 69 70 71 72 73 67 55 44 38 46 67 74 60 41 27 25 24 20 16 15 14 12 13 13 11 13 11 12 12 11 12 12 12 12 11 11 11 13 13 14 15 15 14 14 13 13 12 12 11
71 76 79 84 88 85 85 90 87 81 84 87 88 91 93 97 99 92 87 80 77 78 78 73 69 66 63 61 60 61 66 72 78 80 81 75 66 69 76 76 77 75 64 53 43 47 69 78 71 61 47 33 35 44 31 16 18 15 14 14 13 14 13 12 12 12 12 12 13 12 12 12 11 12 12 13 13 14 15 15 15 14 14 13 13
76 77 77 78 79 84 88 84 84 85 85 86 89 94 92 92 93 86 82 80 81 81 79 77 69 63 62 60 58 61 67 72 74 76 78 77 70 68 75 77 78 80 73 63 52 48 64 80 77 70 63 45 41 59 50 23 17 17 15 15 15 14 14 14 13 13 12 12 13 12 12 11 11 12 13 14 13 13 14 14 15 15 16 15 14
79 79 79 81 78 82 88 80 78 84 84 84 85 87 85 85 82 72 68 71 79 85 84 82 74 67 62 59 61 61 64 69 70 72 76 81 79 66 63 70 77 81 77 69 61 50 54 78 87 77 72 62 45 50 53 33 19 20 20 18 20 18 15 16 14 13 12 12 12 12 11 10 10 11 12 14 14 15 14 14 15 14 16 15 15
82 83 82 85 85 85 90 85 80 82 81 79 77 78 80 82 78 67 65 65 69 80 85 86 82 74 68 63 62 60 60 62 64 71 76 79 79 69 63 68 75 82 79 70 69 59 49 61 74 76 78 70 48 41 47 45 33 31 32 24 23 24 19 16 14 13 12 11 11 10 10 9 8 8 9 12 13 15 15 16 16 16 16 16 15
84 87 84 85 89 89 92 89 83 78 73 70 75 81 79 79 76 67 68 68 66 73 77 83 87 79 73 71 67 66 65 62 65 72 76 80 81 80 81 78 76 83 84 76 73 67 54 47 46 51 60 51 39 39 46 50 34 27 43 47 40 34 27 18 12 11 10 8 8 7 7 7 6 7 8 10 12 14 15 16 17 17 18 16 16
86 85 87 90 91 91 92 90 85 79 74 72 82 87 79 78 75 67 67 70 71 74 71 72 83 84 79 78 75 74 71 68 72 71 72 80 80 80 84 83 81 83 85 83 80 72 60 50 39 35 37 37 38 40 48 54 29 15 42 58 51 40 29 19 11 8 8 6 6 5 4 4 5 6 7 9 11 13 15 16 17 18 19 18 17
90 86 88 94 96 94 89 88 86 83 79 79 87 85 76 75 71 66 67 70 71 74 72 65 75 87 84 82 79 79 77 75 78 75 72 77 78 79 78 78 86 86 79 79 81 78 72 61 49 43 43 49 55 49 54 65 40 17 33 46 47 40 29 25 17 8 6 5 5 3 3 4 5 7 8 10 11 13 15 16 17 18 18 19 19
87 89 87 93 99 98 94 90 86 85 82 81 85 81 73 72 69 69 71 75 75 74 73 66 74 87 84 82 83 80 78 78 83 83 79 80 82 83 78 74 83 87 81 79 79 76 76 72 59 53 54 60 66 60 59 67 53 35 38 44 49 47 38 35 27 15 10 9 8 6 6 7 9 11 12 14 14 15 16 17 19 19 20 20 20
78 84 86 94 99 100 98 94 88 87 85 83 85 79 74 72 72 75 73 75 78 76 75 69 75 88 86 84 85 82 81 85 90 87 83 83 83 82 81 82 82 78 74 73 72 67 68 76 73 65 61 62 67 67 60 59 58 57 57 54 54 51 45 42 35 26 20 21 21 18 17 17 18 19 19 19 19 19 20 20 21 21 21 21 21
69 77 87 96 98 98 96 93 92 91 87 84 85 79 72 69 72 77 73 74 79 80 79 75 79 88 86 84 84 83 83 86 89 89 84 77 79 83 86 92 88 74 65 62 65 67 65 70 74 74 74 73 73 76 72 61 54 58 62 61 61 55 47 47 45 38 30 31 32 30 29 28 27 26 25 24 23 23 23 23 23 23 23 23 23
69 75 85 88 85 88 92 90 90 92 89 86 85 78 71 70 73 76 71 75 84 86 83 81 85 87 83 85 85 82 86 87 85 89 86 76 80 87 87 90 83 72 69 65 65 70 70 68 67 70 76 80 80 80 80 73 65 67 71 74 77 71 61 58 55 48 41 38 37 36 35 33 32 31 29 28 28 27 27 27 27 25 25 26 26
72 74 80 82 79 81 84 85 86 88 86 83 81 75 72 77 82 84 82 82 87 90 88 86 89 90 84 84 83 79 86 88 82 84 85 85 90 87 85 84 74 73 76 69 65 67 68 70 72 74 76 80 82 78 79 80 78 80 83 85 89 89 84 76 65 57 53 46 43 43 42 40 39 38 36 35 35 35 35 35 34 33 32 30 29
63 63 69 76 79 80 78 80 84 82 77 76 77 73 74 82 84 86 89 89 88 89 86 83 86 90 84 82 84 80 80 79 78 83 83 87 94 89 85 82 75 79 79 70 67 65 63 68 77 82 81 83 82 77 77 81 79 80 84 87 90 93 95 90 82 78 70 58 52 49 48 47 48 50 50 49 47 47 46 45 44 44 44 42 39
62 62 72 73 69 73 72 70 69 68 71 71 73 73 70 77 82 83 87 92 93 87 81 81 86 92 88 83 84 82 81 79 75 80 82 84 90 88 87 85 82 84 82 80 82 77 73 75 80 86 88 87 85 79 74 74 77 79 82 84 84 84 88 89 89 92 86 75 67 61 58 58 60 64 65 64 63 63 62 60 58 57 55 54 52
70 70 79 71 62 69 71 63 55 59 74 74 74 78 72 75 82 81 83 88 91 86 81 84 87 91 92 88 86 83 85 83 77 76 78 80 83 86 89 86 86 87 81 80 84 82 80 79 78 84 89 84 79 75 71 74 78 78 80 82 82 81 81 82 87 96 95 89 83 76 72 69 68 72 71 72 74 74 76 75 76 73 68 66 65
73 71 76 74 70 73 74 72 66 69 83 85 83 83 76 78 83 81 83 82 85 90 89 90 93 91 90 89 84 82 84 83 83 81 75 75 79 84 87 81 79 85 82 77 79 79 79 81 79 80 87 87 82 75 69 74 77 75 74 76 81 85 83 81 85 94 94 91 91 89 85 81 78 77 75 77 79 79 82 83 84 83 79 79 78
74 71 75 80 79 76 76 81 78 72 77 82 84 85 79 76 74 77 86 81 77 86 87 87 91 88 88 89 83 83 89 86 84 83 78 79 82 81 85 84 80 84 86 84 86 85 84 88 86 83 89 92 91 86 80 78 76 74 73 72 77 83 84 83 83 89 90 88 90 91 91 89 86 85 84 85 85 85 88 91 90 88 87 88 87
78 78 76 79 80 80 81 81 78 74 71 74 80 86 83 77 71 75 86 84 78 83 86 85 85 83 84 87 84 83 86 83 78 79 80 84 85 78 77 85 88 88 88 86 84 85 86 88 89 88 88 87 89 92 89 80 75 78 79 76 77 78 79 81 79 81 84 84 86 87 88 89 88 89 88 89 91 92 96 96 93 92 93 95 93
79 78 71 69 71 76 80 78 74 70 67 72 79 81 79 72 66 70 78 79 77 79 83 83 83 84 79 77 81 81 82 84 80 77 78 82 88 85 79 82 86 87 91 91 86 86 88 91 92 88 80 80 85 90 86 79 79 83 85 84 82 79 78 79 79 78 78 79 79 80 82 84 87 88 87 89 92 94 96 91 88 91 94 95 94
76 71 65 65 66 68 69 72 73 67 62 69 75 77 76 67 61 65 74 78 78 78 81 83 83 84 80 76 83 86 84 86 84 80 77 76 84 93 91 87 86 87 91 93 90 89 89 91 92 86 79 79 84 87 84 80 80 80 83 86 85 82 80 80 80 78 76 77 78 81 85 88 89 86 84 88 89 90 93 89 87 92 94 94 95
72 66 64 65 67 69 64 62 68 69 68 70 69 64 58 53 50 52 60 69 73 68 69 77 80 83 84 82 82 80 78 79 81 81 74 67 75 90 91 86 87 90 87 83 84 84 84 86 86 83 80 75 72 73 71 68 70 75 83 90 90 88 87 86 83 78 77 81 83 86 86 85 83 78 75 77 74 73 77 82 89 96 97 95 95
65 57 52 48 45 52 57 55 58 66 72 74 72 66 59 57 55 47 47 59 69 70 70 77 80 77 77 76 73 72 72 71 73 77 73 66 71 80 84 82 82 85 82 74 71 72 73 78 82 83 81 74 64 62 62 61 65 74 83 86 83 78 75 77 79 79 83 84 81 77 75 73 74 73 70 67 62 60 59 62 73 83 87 90 91
61 46 35 36 35 39 45 45 43 50 62 67 69 71 68 66 66 61 56 56 63 70 69 71 76 73 67 63 61 62 64 65 67 71 74 74 71 70 74 75 72 74 74 66 61 62 63 66 72 77 80 80 73 68 68 68 68 75 80 77 72 66 65 69 74 80 85 84 78 75 75 75 72 68 64 60 56 54 51 48 50 53 58 65 72
59 44 38 47 51 47 42 35 27 30 39 46 57 68 65 61 64 62 55 46 41 42 37 39 55 66 66 61 54 54 57 59 61 65 69 73 69 63 64 66 65 64 61 55 53 55 58 60 65 71 77 81 81 78 78 78 79 83 85 82 80 79 80 81 82 84 85 83 80 79 80 78 70 62 56 52 46 42 40 39 38 36 37 41 46
58 51 52 53 44 33 27 23 20 21 22 25 39 58 63 61 59 51 42 33 28 27 20 17 27 40 51 57 54 52 53 53 54 58 63 69 66 61 61 62 59 53 48 47 47 50 54 58 64 72 76 78 79 77 78 80 81 82 82 84 86 85 85 84 83 81 79 75 71 67 65 60 51 43 37 33 29 26 25 25 25 25 25 27 31
43 38 41 37 26 19 18 16 16 18 21 26 35 47 55 55 40 29 28 24 20 23 21 16 15 17 32 51 51 46 46 49 49 51 58 65 65 63 60 56 49 43 41 42 44 47 48 50 58 67 69 69 68 67 68 69 70 71 69 69 70 67 65 62 58 54 50 45 40 36 33 29 25 23 20 19 19 19 19 18 18 18 17 18 19
20 16 21 21 18 18 17 16 17 18 19 29 36 33 39 42 27 21 30 26 20 23 23 18 13 10 25 48 51 42 40 43 45 49 56 60 61 61 55 48 44 41 40 43 44 44 41 40 47 56 60 58 54 54 57 53 47 47 45 41 40 38 36 34 32 30 28 26 26 25 24 24 24 24 24 24 25 24 24 23 22 21 20 19 19
10 12 15 15 17 18 18 16 18 18 18 26 29 24 28 31 23 18 20 18 14 18 20 18 16 18 33 53 55 44 36 34 32 35 47 53 54 56 54 47 44 40 38 44 47 45 41 38 36 43 52 52 45 43 45 39 31 33 33 30 30 30 29 31 30 31 31 31 32 32 32 33 33 32 32 31 31 30 29 29 28 27 26 25 24
13 16 14 15 17 17 19 18 18 19 22 27 27 29 31 27 23 21 20 23 20 16 16 18 19 22 34 51 52 37 27 29 26 24 37 48 46 44 47 48 48 43 38 44 51 48 44 41 35 36 42 44 42 39 37 34 32 35 35 32 35 36 36 37 37 38 39 38 39 39 38 38 37 37 37 35 35 34 33 33 32 31 30 29 28
16 16 17 19 19 18 20 20 22 21 22 24 26 34 39 33 32 30 27 35 33 24 26 27 25 23 28 43 50 43 40 43 41 35 39 47 44 38 39 43 48 49 43 44 52 51 47 45 41 38 39 40 41 41 38 35 34 37 39 36 37 38 38 39 39 40 40 40 41 41 41 41 40 40 39 39 38 38 37 36 36 35 35 35 34
17 18 20 20 20 26 29 26 27 24 22 25 27 42 59 64 63 49 39 49 52 45 41 40 44 46 43 43 38 38 49 52 49 46 43 45 46 42 42 43 46 51 48 45 52 53 48 45 43 39 38 38 40 41 42 41 36 37 43 43 39 39 41 42 43 42 42 43 44 44 44 44 44 44 43 43 42 40 40 38 37 37 36 36 36
21 22 23 23 22 32 45 52 52 42 33 31 34 52 69 71 70 62 57 67 69 60 52 49 54 54 52 54 42 34 47 53 50 48 44 43 45 42 43 45 45 49 50 47 51 53 48 44 43 41 38 38 40 42 47 51 49 47 49 50 48 48 50 51 52 51 48 49 50 50 50 49 48 48 47 46 45 44 43 41 40 39 38 37 36
23 24 25 23 23 37 59 74 76 70 62 56 59 74 76 65 63 65 69 75 74 69 67 65 62 51 47 58 53 39 40 44 45 46 45 45 42 38 39 43 44 46 48 46 46 49 49 47 47 48 47 46 45 46 51 57 59 56 53 53 54 53 52 53 57 56 49 45 44 43 46 49 51 52 52 50 49 48 46 45 44 42 40 38 36
22 32 36 25 23 44 69 79 79 81 81 75 72 76 73 68 68 66 67 72 73 75 78 77 75 70 64 67 64 51 42 41 45 50 50 49 45 39 39 42 45 46 47 48 48 50 52 54 55 54 56 58 54 50 54 57 58 56 54 54 55 53 53 54 56 56 50 44 42 38 35 35 38 42 46 49 50 49 48 47 45 44 41 40 38
31 42 47 40 42 58 73 77 76 79 83 83 81 79 76 77 80 77 75 76 76 79 84 82 80 83 83 81 80 74 64 61 63 63 60 58 53 48 46 47 51 56 58 58 57 57 57 59 59 56 58 62 58 51 52 53 54 54 52 54 56 56 57 61 63 61 58 52 47 43 39 35 30 28 30 35 40 42 43 43 44 44 42 41 39
54 53 53 57 66 71 73 75 75 78 82 83 83 86 86 83 83 84 84 85 87 87 89 88 83 84 88 87 85 83 80 79 79 75 71 67 60 57 55 52 55 64 69 68 66 65 63 63 62 60 60 59 56 56 56 53 54 54 51 51 55 56 59 65 69 69 68 61 49 42 40 38 33 28 23 21 22 25 29 32 35 38 38 37 35
69 68 65 68 74 74 75 77 76 79 82 79 79 86 89 86 84 82 78 80 86 86 89 91 85 80 84 84 82 84 86 86 84 81 79 72 64 61 62 58 56 60 67 70 70 68 68 67 65 65 65 61 60 65 65 61 61 62 59 58 58 58 58 62 66 69 70 69 63 55 49 44 39 34 27 20 15 13 15 17 21 25 27 27 26
75 76 74 75 78 77 78 79 78 81 81 79 82 86 86 85 87 88 84 79 77 79 87 92 88 84 85 84 83 86 86 84 85 86 84 80 73 67 65 63 59 59 65 71 71 71 72 73 72 71 70 67 67 69 67 64 65 64 62 64 66 67 66 66 68 69 67 68 71 70 64 57 48 40 34 27 19 15 12 11 13 16 18 19 20
79 82 78 78 82 81 79 78 78 80 83 86 88 89 88 86 89 94 94 86 81 84 89 88 86 87 88 87 88 87 80 76 81 85 85 87 86 79 76 75 67 61 64 69 71 72 71 71 73 75 72 70 70 70 68 66 66 67 65 67 73 75 72 69 69 68 65 63 68 72 68 62 54 47 43 37 29 24 20 16 16 16 16 17 19
82 83 82 81 83 85 84 83 83 85 88 88 82 80 85 87 90 93 92 86 86 88 85 82 85 87 85 84 85 84 79 77 81 82 80 81 82 81 83 84 80 74 71 69 68 68 68 69 72 75 74 72 71 72 72 71 73 75 72 72 77 76 71 69 67 65 63 61 65 71 68 61 55 49 45 43 42 39 31 24 20 15 14 17 18
82 76 78 77 80 85 81 82 92 94 89 81 73 73 77 79 83 86 85 82 84 85 79 75 78 78 76 78 79 75 74 77 81 83 82 80 79 81 85 85 86 86 82 76 69 67 71 72 71 74 75 73 74 76 76 74 76 77 76 78 80 76 72 70 65 63 63 62 66 71 68 60 55 50 45 45 47 44 40 38 33 21 15 18 19
81 79 80 76 80 81 71 76 91 92 84 79 77 78 77 76 77 80 83 84 84 84 79 71 69 72 79 85 80 68 61 65 70 69 67 69 70 73 76 79 84 87 89 89 82 76 77 76 71 72 74 74 77 81 80 77 77 78 78 80 80 77 75 70 66 66 66 67 70 72 66 59 55 53 49 47 46 44 45 49 45 33 23 19 19
76 77 76 73 79 78 70 80 89 84 80 83 84 80 74 71 66 68 80 85 80 80 80 73 70 73 79 82 76 65 56 51 53 52 47 44 46 48 53 61 72 79 86 93 93 87 82 78 74 72 75 79 79 80 82 80 79 79 78 79 80 79 77 73 73 73 71 70 69 64 57 50 50 54 51 48 50 49 48 48 45 41 33 25 21
71 74 77 80 84 79 79 88 87 80 82 85 80 72 66 63 55 55 72 79 74 76 78 75 74 72 71 72 70 69 62 48 45 58 60 42 29 32 37 43 56 69 80 89 96 95 84 77 78 78 79 84 82 79 82 82 79 79 78 78 79 79 77 75 74 70 66 63 60 56 52 48 51 59 56 51 53 52 50 51 50 47 41 33 29
81 83 86 86 82 79 86 93 87 82 83 79 73 66 63 57 44 37 44 48 55 63 57 53 61 65 64 65 66 71 73 58 43 52 67 59 41 36 34 34 44 57 69 77 87 96 89 75 76 81 83 86 85 82 83 81 78 78 77 78 80 79 77 72 67 63 60 58 59 62 65 63 64 66 62 57 57 54 54 57 56 53 49 45 42
80 82 80 74 70 76 87 88 81 78 76 73 67 58 49 36 23 22 25 31 50 59 42 31 41 48 47 51 64 74 70 57 43 37 48 64 70 66 60 56 52 48 57 71 78 88 94 84 78 80 81 82 81 79 79 79 79 81 81 81 81 77 73 68 65 66 65 64 64 65 67 67 67 67 63 62 62 60 60 61 59 57 55 53 53
72 76 76 68 66 74 81 78 71 63 59 55 45 34 29 20 17 35 50 53 67 73 57 44 41 36 29 35 64 81 57 34 36 35 34 52 74 82 81 84 77 61 63 81 84 84 90 89 84 82 80 79 79 79 82 83 84 85 84 82 79 73 69 69 68 66 64 60 57 57 57 58 60 63 64 64 64 64 64 65 63 61 61 62 63
69 73 74 68 66 69 71 72 65 46 32 32 27 20 24 22 20 42 62 64 69 73 70 65 49 27 16 22 53 77 55 26 32 40 36 45 66 78 80 85 89 78 72 80 85 85 85 83 80 80 79 80 82 82 85 86 85 85 81 75 69 62 59 62 60 57 57 56 54 55 57 57 59 63 66 66 66 67 67 67 65 65 67 69 69
62 66 65 63 63 61 61 69 71 51 29 26 27 23 25 23 21 36 55 61 65 68 72 78 64 31 15 21 36 51 45 32 35 39 31 33 53 73 76 76 83 86 82 78 78 81 82 79 78 79 79 81 84 84 84 84 82 79 74 66 56 47 50 60 63 61 62 59 58 61 64 64 64 66 66 66 65 65 65 64 64 65 67 68 69
55 57 56 57 58 58 61 66 69 65 47 29 27 26 25 23 20 30 49 56 59 63 66 75 74 50 29 26 28 32 34 32 34 34 27 31 55 77 78 71 74 84 91 87 79 79 81 80 80 82 81 81 81 80 77 75 72 69 65 58 50 49 63 75 75 73 70 65 63 66 68 68 66 65 64 62 61 60 61 63 65 66 66 66 66
Wind_Speed
8 9 8 8 8 9 9 9 10 9 7 6 6 7 8 9 9 9 7 7 7 7 7 6 6 6 6 7 7 8 9 10 9 9 9 9 9 8 5 5 4 4 4 5 7 4 3 3 3 3 2 4 6 6 7 7 7 6 5 4 3 2 1 1 1 1 2 2 3 4 4 5 6 6 7 7 8 8 8 8 8 8 8 8 7
8 8 8 8 8 9 9 9 9 10 9 8 8 8 9 9 8 7 6 6 7 7 7 6 6 5 6 7 7 8 9 9 9 9 10 9 10 8 5 5 5 4 3 4 5 4 3 3 3 3 2 2 5 6 6 6 7 6 5 5 4 3 3 2 2 1 0 1 1 2 3 3 4 5 5 6 6 7 7 7 7 7 8 7 7
10 9 8 8 8 8 8 9 10 10 11 11 10 10 9 8 6 6 5 5 6 7 7 6 6 5 5 7 6 7 7 8 9 8 8 8 9 8 6 6 6 5 4 3 3 2 2 3 2 3 2 2 4 6 6 5 6 6 6 5 5 5 4 3 3 2 2 1 0 0 1 2 2 3 3 4 4 5 5 6 6 7 7 7 7
10 9 8 8 8 7 6 7 9 9 10 11 10 10 8 6 5 6 6 6 5 5 6 6 6 6 5 6 6 7 7 7 7 7 7 7 7 8 8 8 8 7 4 3 1 1 1 3 3 2 1 2 2 5 6 6 6 6 6 6 6 5 5 5 4 4 3 3 2 1 1 0 1 1 1 2 3 3 4 4 5 5 6 7 7
9 9 9 8 8 7 6 6 7 7 9 11 10 10 8 6 6 6 6 8 6 4 5 6 6 6 6 6 6 7 6 6 7 7 7 8 7 7 9 9 9 8 5 4 1 1 1 2 3 3 2 2 2 3 4 5 6 6 5 5 5 5 5 5 5 6 5 4 4 3 2 1 1 1 1 1 1 2 2 3 4 4 5 6 6
8 9 10 8 7 6 5 5 7 8 9 10 10 10 8 6 6 6 6 7 7 6 6 7 7 7 7 6 5 6 6 6 6 7 7 7 7 7 8 9 10 8 6 4 3 3 3 2 2 3 2 1 0 1 2 4 5 5 5 4 4 4 4 5 5 6 6 5 5 4 3 3 2 2 2 2 2 1 2 2 2 3 4 4 5
7 7 8 7 5 5 6 6 6 7 7 8 8 9 8 7 6 7 7 7 6 6 6 9 9 7 7 6 5 5 7 6 5 5 6 6 6 7 8 8 10 9 7 5 4 3 3 3 2 2 2 2 1 1 2 3 3 3 4 4 3 2 2 3 4 4 6 6 5 5 4 4 4 3 3 3 2 3 2 2 2 2 2 3 3
4 5 6 5 4 5 6 6 5 6 6 6 7 7 8 7 7 7 8 7 7 6 7 9 11 7 6 7 6 6 5 5 5 5 5 6 6 7 8 8 9 9 8 6 4 3 3 3 3 4 4 4 2 2 3 4 3 2 2 2 2 1 1 1 1 2 3 4 5 5 5 5 5 4 4 3 3 3 3 3 3 2 2 2 2
2 4 4 3 3 4 5 5 5 5 4 4 5 7 7 7 8 8 8 8 7 7 7 8 9 8 6 6 5 6 5 4 5 5 5 6 6 8 9 9 8 7 7 7 7 5 2 2 2 3 4 4 3 2 3 4 4 4 3 2 2 3 3 2 2 1 1 1 3 4 5 5 5 5 4 4 4 4 4 4 4 3 3 2 2
1 3 3 2 3 3 4 5 4 3 3 3 4 7 7 7 8 7 8 9 8 7 7 7 9 9 7 5 5 6 5 5 5 5 5 6 7 8 9 9 7 6 6 7 9 8 6 4 2 3 3 3 2 1 2 4 6 6 6 5 5 5 5 5 4 3 2 1 1 2 3 3 4 4 4 4 4 4 5 5 4 4 4 4 3
2 1 1 2 2 4 5 4 3 1 2 3 4 6 8 8 7 7 8 9 8 8 8 7 7 8 5 4 5 5 5 6 5 4 6 8 8 7 7 7 5 6 7 8 9 9 8 8 4 3 3 2 1 2 2 2 4 5 6 7 6 5 5 5 5 3 2 2 1 1 1 2 2 3 3 4 4 5 4 5 4 4 4 4 4
3 2 1 1 0 3 3 2 2 1 1 2 3 4 6 7 6 7 8 8 6 7 9 9 7 6 4 3 4 3 4 7 5 5 7 8 9 8 7 3 2 2 6 7 7 7 9 11 9 7 6 4 2 2 2 2 2 2 2 3 4 4 4 4 5 4 3 2 2 1 0 0 1 1 2 2 3 3 3 3 3 3 4 4 4
2 2 2 2 2 1 2 1 1 1 2 2 2 2 4 5 5 6 7 7 7 8 9 9 6 5 4 5 6 6 5 6 5 5 6 6 7 10 10 4 3 1 4 5 6 8 10 10 10 9 8 6 5 3 1 2 3 2 1 1 1 0 1 3 4 5 4 2 2 1 1 1 1 2 2 1 1 2 2 2 2 2 3 3 4
1 2 2 2 2 2 2 2 2 1 1 1 1 1 2 2 3 4 5 5 7 8 8 6 4 5 6 5 5 6 6 4 4 5 6 7 6 7 9 4 1 1 3 6 6 7 8 7 8 9 8 7 6 5 4 3 3 2 1 2 2 3 2 1 0 2 3 2 2 2 1 1 2 2 2 2 2 2 2 2 2 3 3 3 4
3 4 4 2 2 2 2 2 1 1 2 1 1 2 3 2 3 3 2 3 6 7 6 6 4 4 5 4 4 5 5 3 4 6 6 7 5 5 6 3 1 2 4 5 6 4 4 6 6 7 8 8 7 7 6 5 5 4 3 3 3 3 3 4 3 2 1 0 1 2 1 1 0 0 1 2 2 2 1 2 2 3 3 4 4
5 5 4 2 2 3 4 3 2 3 2 1 1 0 1 2 3 2 2 3 5 4 3 4 5 4 3 3 4 3 5 4 4 5 5 6 4 4 4 4 3 4 5 4 4 3 2 5 7 7 8 8 8 9 7 7 8 6 6 5 5 5 4 4 4 4 4 3 3 3 2 3 2 2 1 2 2 2 2 2 3 3 4 5 5
7 5 4 3 3 3 4 4 3 3 3 3 2 2 1 1 2 2 2 3 4 2 2 2 3 5 4 3 3 2 2 2 2 3 3 3 3 2 3 6 4 4 6 4 5 4 4 6 7 7 6 7 8 8 8 8 7 6 6 6 6 6 5 6 6 6 5 5 6 6 7 6 5 5 5 5 5 5 5 5 5 5 5 6 6
6 5 4 3 3 3 4 4 3 3 3 3 3 4 3 2 1 2 2 3 3 1 2 2 1 3 3 2 2 1 1 2 2 2 3 3 3 2 2 6 5 4 6 5 5 5 6 6 5 5 4 4 4 6 9 8 5 5 6 6 5 6 6 7 8 8 7 7 8 8 8 9 8 8 8 9 9 9 9 8 8 8 8 8 8
6 5 4 4 4 4 5 5 4 5 5 4 4 4 4 3 2 2 4 4 2 1 1 1 2 3 2 2 3 2 2 2 2 2 1 1 1 2 1 3 4 5 5 3 3 3 3 2 1 1 1 2 3 4 7 6 5 5 5 5 5 5 4 5 6 7 8 8 8 9 10 10 10 11 11 11 12 12 12 11 11 12 12 11 10
7 7 5 5 5 5 5 5 5 5 4 5 5 4 3 3 2 2 3 4 3 4 4 2 3 3 3 3 3 2 1 1 3 2 1 0 2 2 1 2 3 4 5 5 4 4 4 3 3 4 5 5 4 5 7 6 4 5 3 3 2 2 2 3 4 5 5 4 5 6 8 9 9 10 10 11 12 13 13 13 13 14 14 13 13
9 8 7 7 7 7 6 7 7 6 5 5 5 4 4 3 1 2 3 4 4 4 5 5 4 4 5 6 4 4 3 2 2 1 1 0 2 4 5 5 5 6 7 8 8 7 8 6 6 8 7 5 4 6 7 5 3 3 2 2 2 2 2 2 2 2 2 1 2 3 3 4 5 5 5 6 7 9 10 12 13 14 14 13 13
9 9 8 8 8 8 7 8 9 8 8 8 7 6 5 4 2 2 3 4 5 5 5 6 6 6 8 8 7 7 5 4 4 2 2 2 2 4 6 7 8 8 9 10 10 9 9 9 9 9 8 6 5 6 7 6 6 6 5 3 2 1 1 2 2 2 1 1 2 2 2 3 3 3 4 5 6 6 7 7 9 11 12 13 12
9 9 9 9 10 9 9 8 9 9 9 9 8 8 7 7 6 5 5 6 7 7 7 7 8 8 8 9 8 8 7 8 8 6 5 5 5 6 7 7 8 9 10 10 10 10 11 11 11 11 9 8 8 8 8 8 8 8 9 7 6 4 3 2 3 3 2 2 2 2 2 2 2 3 4 5 7 7 8 8 7 8 8 10 11
9 9 10 9 9 9 9 8 9 10 9 9 8 8 8 8 9 9 8 9 9 8 7 7 8 8 8 8 8 7 7 7 7 7 7 5 5 7 8 8 10 10 10 11 11 11 11 12 12 12 11 10 9 10 11 10 10 10 10 9 8 7 7 6 4 4 3 3 2 2 2 2 2 3 4 6 7 8 8 8 9 10 9 9 9
9 10 10 9 8 8 8 8 8 9 9 9 9 9 8 7 8 9 9 9 10 9 8 8 9 9 8 8 8 8 7 7 7 7 6 5 5 6 7 8 9 10 10 10 10 11 11 10 10 11 11 9 9 10 10 10 11 11 10 10 9 8 7 7 6 5 4 3 3 2 2 3 4 6 7 8 9 9 9 9 10 11 12 12 13
11 11 10 9 9 9 8 8 8 8 8 8 9 9 8 7 7 8 8 9 9 9 9 8 9 9 9 9 8 8 8 8 7 7 7 6 6 6 7 7 7 8 8 8 8 10 11 10 9 9 9 8 7 8 9 9 9 9 8 8 8 7 7 6 5 4 3 3 3 2 3 4 6 7 8 9 9 10 10 10 10 11 12 13 15
13 12 12 11 11 10 9 9 9 9 9 8 8 9 9 7 6 8 8 8 9 9 8 8 8 8 10 10 8 7 8 8 7 7 7 7 6 6 6 6 6 6 6 7 8 8 8 8 9 8 7 6 7 8 7 7 8 7 7 8 7 7 6 6 5 5 4 5 5 5 5 6 7 8 8 9 9 10 10 10 9 10 10 11 13
14 14 13 12 12 12 11 11 11 10 11 10 9 9 10 9 8 9 9 8 9 9 9 8 8 9 10 11 9 7 8 8 7 7 7 7 6 6 5 4 5 5 5 5 6 7 6 7 7 7 6 5 6 7 6 7 8 8 8 8 8 8 8 8 8 7 7 7 7 7 7 8 8 9 9 9 10 10 10 10 10 10 10 10 11
14 14 14 13 13 12 11 11 11 11 11 11 10 10 10 10 9 10 10 9 9 10 10 9 10 10 11 10 8 7 7 8 7 7 7 7 5 4 4 3 2 3 3 4 5 5 5 5 6 6 5 4 5 5 4 5 7 8 7 8 8 8 8 8 8 8 8 9 9 9 9 9 10 10 10 10 11 11 11 11 11 11 11 11 11
14 14 14 14 13 13 12 11 11 11 11 10 10 10 10 10 10 10 10 10 9 9 9 9 10 10 10 10 8 8 9 9 8 8 8 8 6 4 4 3 2 2 1 4 5 3 2 4 5 5 4 4 5 4 3 4 6 6 7 7 7 8 9 9 9 9 9 9 10 10 10 10 11 11 11 12 12 12 12 12 12 12 12 12 12
15 13 13 13 13 13 12 10 10 9 9 9 9 9 8 8 9 8 9 9 8 8 8 8 8 8 8 9 7 7 9 9 8 8 8 8 7 5 4 3 2 2 3 3 5 4 3 3 3 3 4 4 3 3 4 5 5 6 8 9 9 10 10 9 9 10 10 10 11 11 12 12 12 13 13 13 13 13 13 13 13 14 14 14 14
16 14 12 12 12 12 11 10 9 8 7 7 7 7 7 7 6 5 7 7 6 6 6 6 7 6 6 6 5 6 7 6 6 8 7 8 8 6 5 4 3 3 3 2 4 5 4 3 3 2 2 3 2 3 4 6 8 7 6 9 11 12 12 12 12 11 12 12 13 14 14 14 14 15 15 15 15 15 15 15 15 15 15 15 15
16 15 13 12 11 11 10 9 8 7 7 6 6 7 6 6 5 4 5 6 4 3 3 4 3 3 4 4 3 4 5 5 5 5 5 6 6 6 5 4 3 3 3 2 4 4 2 2 3 1 1 1 1 1 2 4 7 7 5 9 11 9 9 13 15 15 14 14 15 16 16 17 17 17 17 17 17 17 17 17 17 17 17 17 17
16 16 14 13 12 11 11 10 9 8 7 7 7 8 7 6 5 5 5 5 4 2 3 2 1 0 2 2 0 0 2 4 5 3 2 3 4 3 4 4 3 3 3 2 3 3 1 1 1 2 1 2 1 3 4 4 5 4 3 6 8 5 5 8 13 17 16 15 17 17 17 18 19 19 20 20 20 20 19 20 20 20 20 20 20
17 16 15 14 13 12 11 11 10 9 9 8 8 8 6 5 4 3 4 5 4 3 3 3 2 1 1 1 1 1 1 2 3 1 1 1 3 3 2 2 3 2 3 2 1 1 1 1 1 3 2 2 2 1 3 4 5 3 2 4 4 4 5 6 9 14 16 16 17 18 19 20 21 22 22 23 23 23 23 23 23 23 23 23 23
17 17 16 14 13 12 12 11 10 10 10 9 8 8 7 6 5 3 3 4 4 4 4 4 4 4 3 2 2 2 1 1 1 1 1 0 1 2 1 1 1 1 1 1 1 2 2 2 3 3 1 2 2 0 2 5 6 4 3 4 4 4 6 7 8 12 18 21 20 18 18 19 20 21 21 23 25 25 26 26 26 26 25 25 25
17 17 16 15 13 13 12 11 11 11 11 11 10 9 8 7 7 6 6 5 6 6 6 7 7 6 5 5 4 3 3 3 2 1 1 4 4 2 1 1 1 1 2 2 3 3 3 4 4 4 2 1 2 2 3 4 5 5 5 6 6 7 11 13 11 12 18 25 27 24 21 20 21 21 20 21 23 24 25 26 27 27 27 27 27
16 16 15 14 14 13 12 12 11 11 12 12 10 9 8 8 8 8 8 8 8 8 8 8 8 7 6 6 5 5 5 5 4 5 5 6 7 6 5 4 3 2 4 4 4 4 5 5 5 5 4 4 5 4 4 5 6 7 7 7 7 8 12 14 13 13 15 21 27 27 25 25 26 26 26 24 23 23 24 24 24 25 26 27 28
16 16 15 14 15 14 12 12 12 11 12 12 10 9 9 8 9 10 10 11 11 12 11 10 8 7 6 6 5 6 7 7 7 7 7 6 7 9 9 6 5 4 4 4 5 5 6 8 7 6 6 6 6 6 5 6 7 8 8 7 7 10 14 14 14 15 14 16 20 22 22 25 29 31 32 30 28 26 26 25 25 25 25 26 26
17 17 16 15 15 14 13 13 13 12 12 12 10 9 9 9 10 11 12 12 13 13 13 11 8 8 8 7 8 8 9 8 9 9 8 7 6 7 8 8 9 10 9 7 8 9 9 10 10 7 6 8 8 8 9 9 7 6 8 10 11 14 16 16 15 16 16 16 16 17 20 25 28 31 32 33 31 29 28 28 28 27 27 26 25
19 18 17 16 15 14 13 13 13 14 15 14 12 12 12 12 12 13 13 14 12 11 10 9 7 7 7 8 8 9 9 10 11 12 12 10 8 7 9 11 11 13 14 12 13 14 11 10 10 9 10 11 10 10 10 9 7 9 13 14 13 15 16 17 18 17 17 18 18 19 23 29 32 34 34 30 27 27 29 31 31 30 29 28 28
18 18 16 15 15 15 14 14 14 16 15 13 13 14 14 14 13 12 11 10 8 6 4 5 5 4 3 4 4 4 5 7 9 10 11 12 12 12 12 13 13 14 15 15 16 16 13 11 12 12 12 12 10 10 11 11 12 15 15 12 12 15 17 19 20 17 16 19 21 23 28 34 37 38 34 26 22 25 27 28 29 31 31 30 30
17 16 16 14 13 13 14 14 14 13 12 12 12 12 12 11 9 7 4 3 2 2 1 3 2 1 1 2 2 1 1 2 4 5 7 10 12 12 12 12 14 15 15 14 16 16 14 13 14 12 12 12 11 11 12 13 14 14 12 11 13 16 18 20 21 20 18 19 22 26 33 38 37 32 28 24 23 24 24 24 27 31 31 31 30
19 18 18 17 15 15 14 13 12 10 9 8 7 7 7 6 5 3 1 0 1 2 2 2 1 1 1 1 1 1 1 1 2 3 4 6 8 10 11 11 11 13 13 13 15 15 14 14 14 13 13 12 12 13 15 14 14 14 16 17 17 17 18 21 22 22 21 22 26 32 39 40 34 27 24 22 21 22 23 25 29 31 31 32 31
17 17 16 14 13 12 9 9 8 6 5 6 6 6 6 6 5 3 2 2 2 2 2 2 2 2 1 1 1 2 4 4 3 2 3 6 9 9 11 12 12 12 12 13 14 16 17 17 14 11 13 14 13 14 16 16 16 18 20 21 21 21 23 25 25 27 30 31 33 34 37 36 29 22 21 21 20 22 23 25 28 31 32 34 33
10 10 10 9 8 6 5 6 6 7 8 7 7 6 5 4 4 3 3 4 3 3 3 3 3 2 3 2 1 2 5 6 5 4 3 7 10 10 10 12 12 13 13 13 14 16 19 21 19 16 16 16 16 17 19 19 19 20 21 23 24 26 28 30 32 35 36 33 29 27 28 27 23 20 21 22 22 23 22 22 26 29 32 34 35
7 7 7 7 6 6 8 8 6 7 7 6 6 5 4 4 3 3 2 3 3 2 2 2 3 3 5 5 3 4 8 8 8 8 6 7 8 7 7 8 9 13 14 14 14 15 17 20 21 20 19 18 18 20 21 20 21 22 24 25 27 29 31 32 33 32 28 23 20 20 23 22 19 21 23 22 22 23 21 21 24 27 30 33 34
6 7 6 6 7 8 8 7 6 6 6 5 5 4 3 2 2 3 1 1 3 2 1 2 4 5 5 5 3 4 9 9 8 9 9 8 6 4 4 5 8 12 12 12 12 13 14 16 17 19 20 19 20 21 21 21 22 23 25 26 28 29 28 25 24 22 20 18 17 18 22 23 20 21 23 22 23 23 22 22 24 26 27 28 30
6 8 7 7 8 8 8 7 5 6 6 4 4 3 2 1 2 3 2 2 3 2 1 1 4 6 5 4 4 5 8 9 8 9 11 9 5 4 5 7 8 11 11 11 12 11 12 13 15 17 19 20 22 23 22 22 23 24 26 28 28 26 22 20 21 21 20 19 18 19 22 23 20 21 23 23 23 22 22 22 21 22 22 24 27
6 7 7 7 8 8 8 8 6 5 5 4 4 3 2 2 1 3 3 3 2 1 1 1 3 6 5 5 6 7 9 11 10 10 11 9 5 4 6 8 9 10 11 12 13 11 12 14 17 19 20 21 22 22 23 23 24 26 28 28 27 25 21 19 19 20 19 18 17 17 19 20 19 19 21 22 22 21 20 19 17 18 20 23 25
7 8 8 8 9 8 9 9 9 8 6 5 4 3 3 3 2 3 4 4 4 3 2 2 4 6 5 5 7 9 10 11 11 11 10 6 4 5 6 7 8 10 12 13 14 15 16 17 18 20 21 22 24 25 26 27 27 27 27 26 25 22 17 16 17 19 20 18 14 16 19 19 19 20 20 23 25 23 19 18 18 18 19 21 21
Wind_Direction
196 203 205 191 185 202 203 202 201 191 195 211 224 221 213 216 218 208 197 203 202 190 185 188 192 187 193 198 200 205 206 210 207 218 228 223 232 231 236 268 281 286 300 304 303 297 238 225 233 226 208 191 177 175 189 197 202 203 203 211 217 215 196 149 110 73 51 49 50 55 58 58 59 58 58 59 60 62 65 65 63 61 60 61 64
222 216 217 211 210 216 199 200 206 189 194 212 218 225 221 216 218 209 193 197 205 199 186 178 186 187 191 192 195 206 209 212 210 218 228 223 224 220 214 251 274 276 288 307 312 304 239 223 227 213 207 191 171 167 180 193 201 205 209 216 224 235 230 217 200 179 170 64 44 51 63 63 64 63 60 58 57 55 55 58 59 58 57 51 50
234 231 234 224 227 234 207 204 213 198 199 207 216 228 228 223 224 227 221 207 204 203 195 183 186 183 183 186 185 197 203 206 209 218 230 223 210 212 220 237 259 262 269 287 310 316 238 216 242 223 205 216 181 172 178 187 195 200 207 217 225 235 239 236 232 219 216 216 237 354 52 60 63 67 64 64 60 54 50 48 48 49 51 48 44
231 237 241 232 234 236 213 217 222 210 210 214 229 240 236 241 244 241 235 218 208 203 202 195 193 186 178 185 182 188 198 202 208 211 223 229 211 213 229 236 249 250 245 255 277 340 207 192 225 237 232 267 194 174 182 185 188 196 201 211 222 232 239 240 239 235 233 230 228 230 240 7 52 55 58 67 65 59 53 48 44 42 42 43 43
230 236 237 234 238 232 210 218 223 215 220 225 237 244 236 236 237 240 238 231 237 239 220 210 207 199 185 183 182 185 192 200 207 199 207 236 234 220 226 231 240 241 229 222 187 118 121 155 197 214 239 263 218 182 190 191 191 200 201 203 215 227 236 238 240 237 234 236 237 229 224 235 259 280 303 2 42 50 51 47 46 44 40 37 36
228 234 237 232 228 228 220 211 209 211 229 236 233 235 239 235 234 243 243 239 250 260 241 226 219 204 191 187 184 194 192 185 202 197 197 228 236 219 213 220 229 225 211 187 152 138 120 118 185 202 207 191 135 220 205 199 198 200 197 201 216 221 229 239 240 235 231 233 239 238 233 236 250 268 285 308 331 344 8 22 35 41 38 36 33
227 231 231 225 214 220 224 211 209 215 224 233 226 228 238 234 235 242 240 236 243 254 248 248 248 221 200 197 187 207 203 187 207 203 199 223 232 224 212 213 219 212 202 177 148 148 137 119 137 165 164 124 85 212 196 194 194 191 195 209 224 219 236 250 247 237 230 233 240 244 247 249 254 264 276 292 305 312 319 325 348 11 18 25 29
223 236 232 219 215 226 228 215 220 225 214 219 222 226 235 235 239 243 236 229 231 240 236 247 261 247 208 200 189 202 204 205 226 212 209 226 232 236 225 215 216 207 202 201 185 169 145 129 129 140 141 135 139 163 181 183 169 155 177 217 214 97 16 290 249 249 236 239 248 252 257 263 268 269 272 279 283 287 293 297 305 319 337 352 4
215 244 247 211 203 222 231 231 230 226 211 220 228 228 236 235 237 243 240 235 230 238 239 237 249 250 223 207 208 213 199 214 235 219 219 232 235 241 232 218 220 218 209 213 213 209 205 173 145 144 146 147 156 155 168 168 143 117 105 123 134 99 82 105 128 153 193 243 250 250 256 263 271 274 273 273 272 274 280 287 296 303 311 318 328
266 251 249 186 188 205 217 238 239 220 198 211 235 241 245 233 231 240 241 239 229 231 251 245 237 240 227 201 224 226 200 216 239 240 238 240 243 248 243 225 203 200 211 223 228 225 224 214 161 152 158 148 144 110 147 159 143 123 109 115 126 118 113 111 113 132 136 125 193 225 244 255 267 272 272 273 275 281 287 294 300 304 305 305 308
339 333 237 174 196 208 206 215 213 194 211 223 237 248 253 249 247 243 237 242 238 232 241 243 236 242 228 192 219 222 209 232 239 249 263 261 263 266 259 241 181 178 199 212 230 233 226 225 214 190 174 141 116 76 58 117 142 130 109 104 104 106 111 103 94 104 128 135 147 179 220 249 265 271 280 289 293 298 304 308 310 311 308 308 307
18 19 13 47 216 231 227 217 197 137 185 227 231 246 267 271 264 243 235 240 245 244 246 247 250 252 231 204 239 232 228 256 249 235 266 280 284 282 271 283 60 186 201 200 222 232 230 232 229 223 216 195 169 122 82 68 122 146 121 98 89 82 85 88 85 83 96 135 151 138 177 275 315 325 326 323 319 317 321 323 322 323 319 317 316
53 61 63 48 43 350 348 6 353 108 139 184 210 232 274 276 262 240 233 230 232 244 253 256 262 261 233 214 236 237 231 260 261 242 264 278 285 286 279 299 14 258 218 217 228 227 230 231 225 225 224 211 207 206 161 112 117 135 215 246 246 69 73 80 76 64 61 92 142 132 79 47 55 57 59 58 33 13 7 6 359 353 349 340 331
73 62 58 54 68 45 27 37 11 358 37 23 341 305 296 288 277 252 234 237 245 253 256 249 254 268 255 236 241 247 237 242 260 254 257 261 278 297 290 299 6 219 195 208 215 219 225 225 227 228 220 216 219 219 213 185 160 158 213 243 256 254 248 242 36 41 44 63 103 112 88 71 76 87 86 79 70 54 36 27 22 16 9 2 354
57 47 39 35 53 57 53 58 62 37 22 5 339 323 306 313 316 289 262 264 256 259 264 239 223 255 266 268 271 266 257 249 256 253 250 258 273 309 311 342 59 112 130 167 171 175 202 204 218 225 214 214 215 214 219 225 221 225 228 226 230 240 249 249 245 248 259 36 96 105 114 125 104 85 53 40 49 48 32 19 11 4 2 3 4
77 67 52 55 53 49 51 46 65 78 75 91 92 328 297 311 314 306 309 280 257 259 290 249 220 236 268 278 265 270 285 282 260 249 253 264 272 308 338 18 39 89 104 152 159 137 165 183 202 218 210 195 194 206 216 224 224 231 242 236 228 230 237 242 240 238 239 251 253 241 230 227 227 235 277 314 304 300 306 315 327 333 341 349 353
90 81 51 42 50 57 64 53 61 88 83 73 67 73 46 358 326 317 320 299 282 281 314 291 214 230 251 279 262 256 304 303 272 245 242 256 255 287 29 40 22 68 99 147 169 172 180 184 211 228 211 177 178 188 189 207 221 228 244 246 241 236 235 241 247 246 242 250 254 254 252 247 245 248 257 272 276 282 291 297 307 315 326 335 341
96 94 73 52 50 60 68 58 53 69 71 73 62 50 34 20 8 4 12 342 309 285 301 343 334 251 246 267 256 241 289 310 304 224 216 238 226 222 66 51 36 66 91 123 145 169 188 198 220 222 201 165 159 161 159 174 197 208 227 236 238 236 235 243 250 256 257 258 263 267 266 263 264 264 264 270 272 274 280 287 297 304 309 318 325
103 97 89 79 75 76 74 66 54 40 29 35 48 43 28 18 11 24 36 23 1 12 13 334 316 299 292 271 247 243 261 276 275 216 203 234 209 237 261 63 68 83 79 94 119 142 175 196 208 163 86 57 77 103 114 125 157 184 208 217 221 230 239 249 253 261 266 267 273 277 275 273 275 276 275 274 274 273 276 283 290 293 296 301 307
101 91 84 82 83 86 90 86 73 56 37 38 44 44 54 51 23 25 42 41 32 29 42 40 339 331 345 330 303 304 302 269 270 269 327 206 123 64 34 52 78 105 92 72 65 66 83 71 48 63 52 35 42 60 69 85 138 163 183 202 214 234 252 264 270 273 275 276 281 281 279 278 279 283 282 278 276 276 276 278 281 285 288 290 293
104 97 90 84 82 80 91 101 89 75 71 71 65 57 63 70 44 29 40 46 39 31 46 48 21 11 16 12 5 348 317 263 269 278 350 327 112 92 87 71 65 90 87 73 69 64 71 70 51 63 77 69 52 58 68 84 114 122 143 189 213 227 229 234 255 268 280 310 316 300 295 298 302 308 310 304 301 294 284 276 274 278 281 280 283
115 112 105 102 99 87 85 97 94 85 79 76 71 65 69 75 68 38 35 47 45 36 42 44 38 42 36 27 20 11 0 2 8 10 40 57 102 117 114 99 83 84 82 75 78 77 75 76 70 73 82 78 68 68 75 90 98 94 98 107 117 145 177 193 189 173 108 51 35 1 335 333 340 3 19 12 8 355 330 306 284 276 275 272 278
125 124 120 119 117 106 94 92 93 92 86 79 73 66 69 73 69 64 60 62 58 48 48 49 43 39 39 34 24 20 21 19 17 21 35 62 96 108 111 111 99 95 96 90 87 84 77 74 73 76 78 73 72 75 78 87 92 89 88 90 92 96 107 139 157 141 97 70 57 24 0 7 14 28 29 14 8 4 355 347 330 310 293 282 285
128 132 130 122 117 111 104 100 101 98 94 95 91 76 69 73 76 74 74 75 72 65 67 76 67 46 37 38 32 28 27 22 22 25 31 55 93 103 108 111 104 103 107 99 91 85 78 73 70 71 76 77 74 79 82 84 86 85 82 84 88 90 89 92 100 96 80 62 40 18 4 14 4 353 349 341 340 339 335 334 332 329 321 305 299
134 136 132 123 120 118 115 116 118 114 110 110 103 86 73 77 82 81 80 82 83 81 83 95 95 77 53 42 42 42 37 35 36 31 36 67 96 104 108 110 108 111 113 104 96 88 80 79 81 80 82 81 75 75 77 80 84 85 83 81 84 85 84 83 82 77 68 52 36 24 5 350 333 324 322 318 316 315 313 313 312 313 313 308 304
142 138 134 132 134 134 130 130 129 124 123 122 115 103 89 83 88 91 90 91 90 87 88 93 94 91 76 55 47 50 46 42 44 42 48 69 88 97 101 103 106 113 112 102 92 87 81 77 81 86 87 80 65 60 65 72 75 74 72 70 67 67 67 65 62 58 41 25 17 356 324 313 310 310 312 311 310 309 308 305 301 299 299 299 300
149 146 143 141 137 131 128 127 124 123 121 115 115 113 102 93 100 101 92 91 93 87 85 88 86 93 88 65 48 56 61 53 47 54 63 68 81 94 100 105 108 108 104 91 82 84 85 80 78 77 70 58 43 37 41 46 48 49 45 40 35 31 29 23 15 7 355 347 340 333 323 317 315 317 316 315 315 315 314 312 306 300 294 290 291
152 149 145 141 134 128 126 123 119 119 118 110 109 113 106 99 103 103 94 90 96 91 85 87 88 89 83 65 47 48 63 66 61 66 73 70 79 91 87 93 105 105 102 92 83 82 80 78 80 78 65 46 34 37 39 27 19 19 20 18 12 8 6 2 357 352 348 346 344 341 337 332 329 327 324 322 321 319 319 318 317 314 308 302 296
151 149 146 142 135 130 129 127 124 120 117 112 110 109 105 102 102 103 100 97 98 99 96 95 95 92 83 65 50 52 63 68 71 80 83 75 76 84 71 61 86 105 125 119 94 81 74 72 75 81 76 48 30 42 49 15 4 8 11 8 3 358 356 352 349 347 344 343 342 340 336 333 329 325 322 321 320 319 319 318 318 319 317 315 312
153 153 151 146 141 138 136 133 130 125 119 116 115 111 106 106 106 102 101 98 96 100 100 98 97 96 91 74 58 67 72 66 66 77 81 71 58 61 67 57 46 31 91 129 117 100 81 80 81 84 83 61 44 44 28 5 9 3 347 346 350 346 343 342 340 339 338 336 334 331 328 325 321 318 316 315 314 312 312 312 313 313 314 314 313
161 161 159 155 149 146 144 140 137 132 126 123 119 113 107 103 102 103 103 96 93 96 94 94 92 87 87 80 68 71 65 52 53 61 70 72 58 50 56 61 68 44 43 113 132 122 112 113 102 94 97 91 61 11 339 341 355 348 335 336 340 333 328 327 328 328 327 327 325 323 321 318 316 313 311 310 309 308 308 308 308 308 308 309 308
166 167 170 166 159 154 151 150 148 142 137 135 128 120 115 108 102 104 101 92 87 91 92 92 88 78 73 68 73 88 74 55 50 46 53 66 58 51 54 57 74 70 47 87 127 125 128 126 109 104 112 103 73 11 345 330 337 346 335 322 325 328 326 325 326 326 323 324 323 320 317 315 312 310 308 306 305 305 305 305 305 305 305 306 305
171 172 175 175 170 165 158 156 158 156 153 153 146 135 135 138 138 130 111 104 102 96 96 95 88 93 89 65 57 93 85 75 68 44 38 51 45 48 60 59 71 69 40 70 113 123 151 140 121 163 298 62 120 262 307 308 328 344 328 316 331 345 339 326 320 321 326 329 325 321 318 315 312 309 307 305 303 302 303 302 303 303 303 303 303
180 180 183 184 182 174 165 164 167 165 163 160 153 150 155 156 147 136 127 134 147 144 127 118 64 324 113 106 172 128 101 111 102 74 43 46 27 37 57 51 61 65 41 68 117 117 135 141 143 236 298 9 273 271 296 304 327 340 307 319 342 353 337 324 316 316 330 341 333 327 323 317 313 311 307 305 303 301 301 300 300 300 300 301 301
188 187 189 192 190 179 171 173 177 174 176 177 169 164 169 167 160 157 150 157 169 166 156 154 178 247 183 151 228 284 286 137 120 94 39 55 24 28 59 51 58 69 48 60 117 124 155 179 259 240 236 320 323 272 291 313 344 359 289 294 324 322 322 336 324 312 322 339 339 334 331 324 317 313 309 306 304 302 301 299 299 299 298 298 298
195 192 190 190 189 186 182 183 187 184 185 189 181 173 176 174 177 194 189 190 193 184 185 187 193 214 213 193 212 242 269 240 164 48 21 93 55 42 11 336 32 68 33 7 300 295 279 265 280 270 252 347 339 306 287 308 335 357 332 311 324 317 308 321 322 307 312 325 330 328 328 325 320 315 310 306 303 301 299 298 298 297 297 296 296
196 194 192 190 187 191 193 192 197 195 193 200 196 186 190 191 191 200 205 210 212 205 209 215 215 219 220 217 219 221 236 246 223 204 236 223 197 143 171 237 240 290 302 302 299 303 290 267 263 283 331 335 275 302 322 308 310 318 312 309 313 315 317 323 324 312 311 317 321 321 320 321 321 318 313 308 304 300 298 297 296 296 296 295 295
199 196 194 194 194 197 200 201 205 207 209 216 212 200 209 219 216 219 221 223 225 224 222 224 228 236 245 247 237 225 236 248 245 245 252 241 219 211 222 212 196 265 283 274 283 293 287 272 254 257 276 268 257 280 303 306 306 305 302 295 286 298 313 315 308 306 308 309 313 319 322 325 325 324 321 316 311 306 302 298 296 295 294 293 294
201 201 198 201 204 202 203 208 212 214 221 226 217 208 221 234 234 235 239 237 235 229 218 213 223 236 252 264 250 227 230 238 238 246 262 264 243 239 244 232 203 218 248 262 275 275 272 268 259 253 257 255 255 266 281 295 303 302 298 289 289 304 311 307 301 306 310 303 303 311 319 322 324 325 324 321 318 315 310 306 305 303 298 296 296
205 205 204 206 210 207 209 218 219 219 222 221 216 216 223 229 231 235 241 244 241 229 212 200 208 224 232 246 249 241 242 241 233 236 248 256 256 257 255 246 237 236 239 249 257 253 255 261 262 267 267 259 258 262 274 291 297 288 278 279 295 310 310 306 306 308 310 306 297 297 307 315 319 321 321 319 318 317 312 311 310 307 303 303 303
210 208 205 205 206 204 208 216 217 216 216 216 225 234 232 229 230 236 245 251 249 237 217 198 209 237 248 251 254 255 254 248 243 246 248 248 259 270 265 262 263 255 247 247 247 246 256 271 272 271 267 264 265 267 271 274 266 264 271 278 293 305 303 303 306 306 309 308 296 290 302 312 315 316 316 315 312 310 309 310 309 307 307 308 307
216 215 215 217 215 211 214 219 217 217 220 229 241 246 247 246 243 243 251 256 254 250 219 175 199 247 265 252 252 260 258 249 248 253 255 258 266 272 268 266 268 264 258 254 250 247 256 270 270 268 271 271 268 264 260 259 268 282 288 287 290 297 300 302 302 302 306 307 299 296 304 311 313 314 314 310 303 301 304 306 304 305 309 309 307
222 220 223 233 238 240 244 242 232 231 243 253 251 246 250 252 246 240 245 258 276 312 63 117 159 197 184 201 220 246 263 247 249 255 259 265 269 272 271 266 264 268 268 263 256 251 254 265 268 267 273 274 269 270 272 272 276 281 279 277 287 296 298 298 298 298 302 302 298 298 303 308 309 308 306 302 298 298 299 294 292 298 304 305 303
232 233 237 244 249 256 258 249 242 249 257 250 235 224 217 211 202 180 149 135 51 38 57 83 91 112 143 192 273 308 297 280 299 300 282 273 273 275 277 277 273 273 272 267 262 252 245 253 261 262 266 273 274 274 273 267 264 263 265 277 291 293 292 292 293 295 297 296 296 299 302 306 307 304 301 301 298 297 297 294 293 297 301 302 302
233 234 235 237 243 250 244 233 235 233 210 183 175 175 172 175 184 170 154 166 148 132 136 126 115 123 139 144 328 313 296 283 289 307 294 287 288 285 281 280 281 282 277 271 267 256 243 241 246 253 261 264 262 263 268 271 272 273 276 283 288 287 288 291 291 293 296 299 302 304 304 306 307 302 297 296 293 293 294 293 293 296 299 301 302
221 216 210 208 220 223 184 170 181 178 167 163 168 177 183 201 218 202 179 167 156 158 167 162 167 180 193 203 209 260 272 270 262 256 276 291 293 295 288 280 278 280 278 273 268 261 250 243 240 245 254 254 254 265 278 284 283 282 284 287 288 288 290 292 294 297 301 305 307 304 299 301 304 297 292 294 295 296 293 290 290 293 296 299 301
197 193 197 192 184 164 144 148 170 175 175 184 197 209 220 220 205 174 160 146 142 169 199 202 210 218 227 230 222 239 253 260 266 271 277 284 288 298 294 275 269 273 275 275 272 264 255 248 245 249 257 260 265 273 280 282 282 284 286 287 289 291 295 298 300 303 305 306 304 294 288 290 294 292 292 294 296 296 293 289 289 291 294 297 298
166 165 174 171 164 153 148 167 201 205 205 218 226 219 204 190 149 125 117 121 141 176 226 230 237 247 252 250 239 251 263 269 277 282 285 284 280 283 275 255 264 274 273 271 267 259 253 252 253 259 267 271 274 278 281 283 284 286 288 290 294 299 301 300 298 297 296 294 292 288 286 288 290 289 291 294 295 294 292 289 291 294 294 293 295
150 154 159 159 162 162 161 177 210 224 221 222 226 211 178 164 124 117 143 179 160 168 194 209 260 275 279 266 234 235 271 288 288 284 288 290 277 253 247 247 263 280 282 275 267 259 255 257 261 267 272 276 279 281 283 285 286 288 291 295 298 299 297 292 290 291 291 291 292 288 284 285 288 289 291 294 295 294 293 295 298 298 293 292 296
170 174 175 169 173 176 172 173 187 209 219 209 211 218 199 200 159 127 165 203 187 175 163 160 270 283 282 270 251 248 271 286 285 280 284 283 266 243 244 249 257 270 278 278 274 269 267 268 271 273 276 279 281 282 284 285 288 292 294 296 297 296 292 289 290 293 292 292 293 291 286 287 290 292 295 298 297 295 295 298 298 295 294 297 302
194 194 191 186 186 182 179 184 188 201 226 232 227 236 230 225 202 156 182 225 225 213 195 186 262 281 279 264 260 264 275 279 277 280 280 262 224 218 233 252 258 252 255 266 272 275 278 279 279 279 280 282 282 284 286 288 290 293 294 295 297 297 294 292 295 298 297 295 295 295 294 296 296 295 297 299 298 297 296 296 295 294 295 298 301